Location: Estrella Escondido
(31.8318°N, 104.8079°W)
Time: 18:55:19
(UTC-07:00)

ISS - Visible Passes

Search period start: 23 January 2018 00:00
Search period end: 02 February 2018 00:00
Orbit: 402 x 407 km, 51.6° (Epoch: 24 January)

Date Brightness Start Highest point End Pass type
(mag) Time Alt. Az. Time Alt. Az. Time Alt. Az.
23 Jan -2.2 17:59:10 10° S 18:01:39 20° SE 18:03:52 11° E visible
23 Jan -1.1 19:35:13 10° W 19:36:33 19° WNW 19:36:33 19° WNW visible
24 Jan -3.3 18:42:27 10° WSW 18:45:38 53° NW 18:46:51 31° NNE visible
25 Jan -3.7 17:50:08 10° SW 17:53:20 64° SE 17:56:34 10° NE visible
25 Jan -0.9 19:28:44 10° WNW 19:29:44 12° NW 19:29:44 12° NW visible
26 Jan -1.6 18:35:02 10° W 18:37:35 21° NW 18:39:50 11° NNE visible
28 Jan -0.8 18:29:29 10° NNW 18:29:39 10° NNW 18:29:49 10° NNW visible
